カタログに戻る

STARLINK-32514

運用中通信VLEO
NORAD 61965·PAYLOAD·🇺🇸 United States

打ち上げ Nov 14, 2024 から Cape Canaveral Space Force Station

Loading…

次のパス (今後24時間)

TLE

最新Source: CelesTrak SupGP

元期: Sep 15, 2026, 02:55 UTC

1 61965C 24210G   26258.12201389 -.00039668  00000+0 -14372-2 0  2585
2 61965  43.0017 182.9792 0001349 278.0481  41.8013 15.27587772    18

AllMySatでSTARLINK-32514をリアルタイム追跡

Download on the App Store